FW9424 Weather Reports


time (UTC)temp
F
wind
direction
speed
knots
gust
knots
rain 1hr
in
rain 24hr
in
rain mn
in
humidity
%
barometer
mb
20260504081517 59 286 7.0 17.4 0.00 0.30 0.00 52 1015.4
20260504080517 57 291 6.1 14.8 0.00 0.30 0.00 53 1015.4
20260504050517 54 312 7.0 26.1 0.00 0.30 0.00 58 1014.0
20260504045517 53 322 7.8 18.2 0.00 0.30 0.00 59 1014.0
20260504044518 53 334 7.8 18.2 0.00 0.30 0.00 60 1013.9
20260504043517 53 320 7.8 19.1 0.00 0.30 0.00 61 1013.9
20260504042517 52 318 9.6 20.9 0.00 0.30 0.00 61 1013.8
20260504041517 52 311 9.6 22.6 0.00 0.30 0.00 61 1013.6
20260504040517 52 329 9.6 20.9 0.00 0.30 0.00 60 1013.3
20260504035517 52 315 6.1 22.6 0.00 0.30 0.00 60 1013.3
20260504034517 52 325 7.0 15.6 0.00 0.30 0.00 61 1013.3
20260504033517 52 338 7.8 18.2 0.00 0.30 0.00 61 1013.3
20260504032517 52 321 7.8 18.2 0.00 0.30 0.00 59 1013.3
20260504031517 52 321 7.0 15.6 0.00 0.30 0.00 58 1013.1
20260504030517 52 310 7.8 20.9 0.00 0.30 0.00 59 1013.1
20260504025537 52 321 7.0 20.9 0.00 0.30 0.00 59 1013.0
20260504024517 52 337 7.8 17.4 0.00 0.30 0.00 59 1012.9
20260504023517 52 333 10.4 26.9 0.00 0.30 0.00 58 1013.0
20260504022538 52 327 9.6 21.7 0.00 0.30 0.00 58 1012.9
20260504021517 52 303 7.0 20.0 0.00 0.30 0.00 58 1012.8
20260504020517 52 340 7.0 16.5 0.00 0.30 0.00 60 1012.8
20260504015517 52 344 7.0 21.7 0.00 0.30 0.00 60 1012.7
20260504014558 52 341 7.0 16.5 0.00 0.30 0.00 60 1012.6
20260504013537 52 339 7.0 17.4 0.00 0.30 0.00 60 1012.7
20260504012517 52 332 7.8 18.2 0.00 0.30 0.00 60 1012.6
20260504011517 52 323 7.8 19.1 0.00 0.30 0.00 59 1012.5
20260504010517 52 327 8.7 17.4 0.00 0.30 0.00 59 1012.4
20260504005517 52 301 9.6 20.0 0.00 0.30 0.00 59 1012.3
20260504004517 52 305 7.8 19.1 0.00 0.30 0.00 60 1012.3
20260504003517 52 336 9.6 19.1 0.00 0.30 0.00 61 1012.2
20260504002538 52 327 7.8 21.7 0.00 0.30 0.00 63 1012.1
20260504001557 52 340 11.3 25.2 0.00 0.30 0.00 63 1012.0
20260504000517 52 328 9.6 22.6 0.00 0.30 0.00 63 1011.9
20260503235517 53 318 8.7 21.7 0.00 0.30 0.00 62 1011.9
20260503234517 53 339 8.7 23.5 0.00 0.30 0.00 62 1012.0
20260503233517 53 309 9.6 23.5 0.00 0.30 0.00 62 1011.9
20260503232537 53 313 13.0 27.8 0.00 0.30 0.00 62 1011.9
20260503231517 53 314 9.6 22.6 0.00 0.30 0.00 64 1011.8
20260503230517 53 305 8.7 18.2 0.00 0.30 0.00 66 1011.9
20260503225517 53 298 11.3 27.8 0.00 0.30 0.00 66 1011.8
20260503224558 53 326 9.6 23.5 0.00 0.30 0.00 67 1011.9
20260503223517 53 340 10.4 22.6 0.00 0.30 0.00 69 1011.7
20260503222517 53 302 9.6 22.6 0.00 0.30 0.00 69 1011.7
20260503221517 53 304 8.7 22.6 0.00 0.30 0.00 69 1011.6
20260503220517 53 321 8.7 25.2 0.00 0.30 0.00 71 1011.6
20260503215518 53 306 11.3 24.3 0.00 0.30 0.00 72 1011.5
20260503214517 53 314 7.8 18.2 0.00 0.30 0.00 71 1011.5
20260503213517 53 303 7.8 22.6 0.00 0.30 0.00 72 1011.4
20260503212517 53 326 9.6 23.5 0.00 0.30 0.00 73 1011.3
20260503211517 53 325 7.8 22.6 0.00 0.30 0.00 73 1011.1
20260503210518 53 321 8.7 24.3 0.00 0.30 0.00 73 1011.0
20260503205517 53 288 6.1 18.2 0.00 0.30 0.30 73 1010.9
20260503204517 53 307 10.4 21.7 0.00 0.30 0.30 73 1010.9
20260503203517 53 318 8.7 25.2 0.00 0.30 0.30 73 1010.8
20260503202518 53 293 8.7 23.5 0.00 0.30 0.30 73 1010.7
20260503201515 53 292 10.4 26.1 0.00 0.30 0.30 73 1010.6
20260503200515 53 302 9.6 25.2 0.00 0.30 0.30 73 1010.6
20260503195516 53 287 7.8 22.6 0.00 0.30 0.30 73 1010.4
20260503194515 53 292 12.2 34.8 0.00 0.30 0.30 72 1010.3
20260503193535 53 279 8.7 27.8 0.00 0.30 0.30 73 1010.2
20260503192515 53 303 12.2 27.8 0.02 0.30 0.30 73 1010.0
20260503191515 53 316 12.2 29.5 0.02 0.30 0.30 73 1010.0
20260503190516 53 311 8.7 25.2 0.02 0.30 0.30 74 1009.9
20260503185535 53 308 12.2 34.8 0.03 0.30 0.30 73 1009.6
20260503184515 53 332 12.2 26.9 0.03 0.30 0.30 75 1009.5
20260503183516 53 301 12.2 31.3 0.03 0.30 0.30 74 1009.3
20260503182515 53 292 13.0 25.2 0.02 0.28 0.28 74 1009.1
20260503181515 53 301 11.3 28.7 0.02 0.28 0.28 75 1008.8
20260503180517 53 310 13.0 32.2 0.02 0.28 0.28 75 1008.8
20260503175515 53 310 10.4 25.2 0.01 0.27 0.27 77 1008.6
20260503174515 53 311 13.9 33.0 0.02 0.27 0.27 77 1008.5
20260503173515 53 314 13.0 30.4 0.02 0.27 0.27 77 1008.4
20260503172515 53 327 12.2 31.3 0.02 0.27 0.27 78 1008.4
20260503171515 52 301 10.4 30.4 0.01 0.26 0.26 80 1008.3
20260503170515 52 310 12.2 27.8 0.01 0.26 0.26 79 1008.2
20260503150515 51 307 8.7 24.3 0.06 0.24 0.24 85 1007.5
20260503130536 52 329 7.8 17.4 0.01 0.17 0.17 78 1007.1
20260503110516 50 322 8.7 20.9 0.06 0.11 0.11 84 1007.7